Regional Weather Roundup
Issued by NWS

Home | Current Version | Previous Version | Graphics & Text | Print | Product List | Glossary On
Versions: 1 2 3 4 5 6 7 8 9 10 11 12 13 14 15 16 17 18 19 20 21 22 23 24 25 26 27 28 29 30 31 32 33 34 35 36 37 38 39 40 41 42 43 44 45 46 47 48 49 50
228
ASUS43 KDTX 200510
RWRMI
MICHIGAN HOURLY REGIONAL WEATHER ROUNDUP
NATIONAL WEATHER SERVICE DETROIT/PONTIAC MI
1200 AM EST FRI JAN 20 2017

NOTE: "FAIR" INDICATES FEW OR NO CLOUDS BELOW 12,000 FEET WITH NO
SIGNIFICANT WEATHER AND/OR OBSTRUCTION TO VISIBILITY.

MIZ047>049-052>055-059>063-066>070-074>076-081>083-200600-
SOUTHEAST LOWER MICHIGAN

CITY           SKY/WX    TMP DP  RH WIND       PRES   REMARKS
ADRIAN         CLOUDY    33  33 100 E12       29.85F FOG     WCI  24
ALMA           CLOUDY    33  32  95 E3        29.86F FOG
ANN ARBOR      CLOUDY    34  34 100 E6        29.87F FOG     WCI  29
BAD AXE        FOG       31  31 100 SE3       29.90F VSB 1/2
CARO           FOG       31  31 100 E3        29.88F VSB 1/2
DETROIT CITY   FOG       32  32 100 E7        29.90F VSB 1/2 WCI  26
DETROIT        FOG       34  34 100 E6        29.89F VSB 1/2 WCI  29
FLINT          CLOUDY    32  31  96 SE3       29.87F FOG
GROSSE ILE     FOG       32  32  99 E6        29.88F VSB 1/2 WCI  27
HILLSDALE      CLOUDY    34  34 100 E8        29.80F FOG     WCI  27
HOWELL         CLOUDY    33  32  96 SE9       29.86F FOG     WCI  25

CITY           SKY/WX    TMP DP  RH WIND       PRES   REMARKS
JACKSON        CLOUDY    35  32  88 E7        29.84F FOG     WCI  29
LAMBERTVILLE   CLOUDY    35  33  93 E6        29.86F FOG     WCI  30
LANSING        CLOUDY    34  31  88 SE8       29.85F FOG     WCI  27
LAPEER         FOG       32  32 100 SE3       29.88F VSB 1/2
MASON          CLOUDY    33  33  99 E5        29.85F FOG     WCI  29
MONROE         FOG       32  32 100 E8        29.87F VSB 3/4 WCI  25
MT. CLEMENS    FOG       32  32 100 E7        29.88F VSB 3/4 WCI  26
PONTIAC        FOG       32  30  92 E7        29.86F VSB 1/4 WCI  26
PORT HOPE        N/A     32  31  96 S5        29.89F WCI  27
PORT HURON     FOG       32  32 100 SE5       29.91F VSB 1/4 WCI  27
TRI CITIES     CLOUDY    32  32 100 E3        29.88F FOG
MIDLAND        FAIR      32  31  96 CALM      29.88S FOG
TROY           FOG       33  32  96 E6        29.91F VSB 3/4 WCI  28
SAGINAW HB     PTCLDY    32  30  93 CALM      29.88F FOG
$$
MIZ043>046-050>051-056>058-064>065-071>073-077>080-200600-
SOUTHWEST LOWER MICHIGAN

CITY           SKY/WX    TMP DP  RH WIND       PRES   REMARKS
BATTLE CREEK   CLOUDY    36  34  92 E7        29.81F WCI  30
BENTON HARBOR  LGT RAIN  39  36  89 E8        29.77F FOG     WCI  33
BIG RAPIDS     CLOUDY    33  32  95 CALM      29.84S FOG
COLDWATER      CLOUDY    37  37 100 E9        29.80F FOG     WCI  30
FREMONT        MOCLDY    35  33  94 E3        29.82F
HOLLAND        CLOUDY    38  34  85 E8        29.79F WCI  32
GRAND RAPIDS   CLOUDY    36  32  85 E9        29.82F WCI  29
IONIA          MOCLDY    34  32  93 SE6       29.83F FOG     WCI  29
KALAMAZOO      LGT RAIN  37  33  85 E5        29.80F FOG     WCI  33
LUDINGTON      PTCLDY    33  33 100 CALM      29.82F FOG
MARSHALL       CLOUDY    35  34  98 E5        29.81F FOG     WCI  31
MOUNT PLEASANT CLOUDY    31  31  99 CALM      29.86F FOG
MUSKEGON       MOCLDY    38  34  85 E8        29.81F WCI  32
SOUTH HAVEN    LGT RAIN  37  36  95 E6        29.78F WCI  32
$$
MIZ016>042-200600-
NORTHERN LOWER MICHIGAN

CITY           SKY/WX    TMP DP  RH WIND       PRES   REMARKS
ALPENA         CLOUDY    33  32  96 S5        29.90S FOG     WCI  29
BEAVER ISLAND  CLOUDY    33  33  99 E3        29.85F FOG
BELLAIRE       CLOUDY    30  29  99 CALM      29.87S FOG
CADILLAC       CLOUDY    32  32  99 E5        29.82F FOG     WCI  27
CHARLEVOIX       N/A     32  32 100 SE3       29.89S FOG
FRANKFORT      CLOUDY    32  32 100 CALM      29.84S FOG
GAYLORD        FOG       34  30  85 SE3       29.84F VSB 1/4
GRAYLING       FOG       33  32  99 SE5       29.86F VSB 1/2 WCI  28
HARBOR SPRINGS CLOUDY    33  33  99 E3        29.86F FOG
HOUGHTON LAKE  FOG       32  31  96 SE5       29.86F VSB 1/2 WCI  27
MANISTEE       PTCLDY    32  31  96 SE3       29.84S FOG
OSCODA         CLOUDY    34  33  95 CALM      29.90S FOG
PELLSTON       CLOUDY    34  32  92 CALM      29.87F FOG
ROGERS CITY    CLOUDY    34  32  93 SE3       29.89F FOG
TRAVERSE CITY  CLOUDY    31  30  96 CALM      29.84S FOG
$$
MIZ007>008-015-200600-
EASTERN UPPER MICHIGAN

CITY           SKY/WX    TMP DP  RH WIND       PRES   REMARKS
KINROSS        MIX PCPN  32  32 100 SE9       29.87F VSB 3/4 WCI  24
MACKINAC ISLAN CLOUDY    33  33 100 CALM      29.86F FOG
NEWBERRY       FOG       33  32  96 S7        29.84S VSB 1/2 WCI  27
S. S. MARIE    FOG       34  32  92 SE7       29.87S VSB 3/4 WCI  28
MUNISING         N/A     32  31  96 S8        29.81S WCI  25
$$
MIZ004>006-011>014-085-200600-
CENTRAL UPPER MICHIGAN

CITY           SKY/WX    TMP DP  RH WIND       PRES   REMARKS
MANISTIQUE     FOG       33  32  96 S3        29.83F VSB 1/4
ESCANABA       FOG       31  31 100 CALM      29.83F VSB 1/4
SAWYER-GWINN   FOG       30  29  99 S7        29.79F VSB 1/2 WCI  23
$$
MIZ001>003-009>011-084-200600-
WESTERN UPPER MICHIGAN

CITY           SKY/WX    TMP DP  RH WIND       PRES   REMARKS
IRON MOUNTAIN  FOG       30  28  92 SE5       29.79S VSB 1   WCI  25
HOUGHTON       CLEAR     31  28  89 S3        29.72F FOG
COPPER HARBOR    N/A     35  33  92 SW14G23   29.73F WCI  26
IRONWOOD       CLOUDY    35  29  78 SE5       29.74F WCI  31
$$

ABBREVIATIONS USED IN REMARKS
   TC - TEMPERATURE IN CELSIUS
  WCI - WIND CHILL INDEX
   HX - HEAT INDEX
  VSB - VISIBILITY





USA.gov is the U.S. government's official web portal to all federal, state and local government web resources and services.